This demonstration page uses our WeatherBlox Daily Observations layout. Learn more.

Left ArrowRight Arrow

Hourly Observations for February 1, 2019

Temp ( °F °C ) Dew Point ( °F °C ) Humidity (%) Winds ( mph kmh ) Pressure ( in mb ) Visibility ( mi km ) Precip ( " mm )
12:52 am 00:52 Mostly Clear 11 -11.7 4 -15.6 73 73 SSE 10 17 30.15 1021 10 16 0.00 0.00
1:52 am 01:52 Mostly Clear 11 -11.7 5 -15 77 77 SSE 8 13 30.16 1021 10 16 0.00 0.00
2:52 am 02:52 Mostly Clear 13 -10.6 6 -14.4 74 74 S 8 13 30.16 1022 10 16 0.00 0.00
3:52 am 03:52 Clear 11 -11.7 5 -15 77 77 SSE 9 15 30.16 1021 10 16 0.00 0.00
4:52 am 04:52 Mostly Clear 10 -12.2 5 -15 80 80 ESE 6 9 30.17 1022 10 16 0.00 0.00
5:52 am 05:52 Mostly Clear 10 -12.2 4 -15.6 76 76 SE 7 11 30.18 1022 10 16 0.00 0.00
6:52 am 06:52 Mostly Clear 10 -12.2 5 -15 80 80 SSE 10 17 30.17 1022 10 16 0.00 0.00
7:52 am 07:52 Partly Cloudy 12 -11.1 6 -14.4 77 77 SSE 9 15 30.18 1022 10 16 0.00 0.00
8:52 am 08:52 Partly Cloudy 14 -10 8 -13.3 77 77 SSE 9 15 30.18 1022 10 16 0.00 0.00
9:52 am 09:52 Mostly Sunny 19 -7.2 11 -11.7 71 71 S 13 20 30.18 1022 10 16 0.00 0.00
10:52 am 10:52 Mostly Sunny 23 -5 14 -10 68 68 S 15 24 30.19 1022 10 16 0.00 0.00
11:52 am 11:52 Partly Cloudy 29 -1.7 18 -7.8 63 63 SSE 16 26 30.17 1022 10 16 0.00 0.00
12:52 pm 12:52 Partly Cloudy 32 0 21 -6.1 64 64 S 16 26 30.14 1021 10 16 0.00 0.00
1:52 pm 13:52 Partly Cloudy 34 1.1 23 -5 64 64 SSE 18 30 30.11 1020 10 16 0.00 0.00
2:52 pm 14:52 Partly Cloudy 36 2.2 25 -3.9 64 64 SSE 17 28 30.09 1019 10 16 0.00 0.00
3:52 pm 15:52 Partly Cloudy 37 2.8 24 -4.4 59 59 S 20 31 30.07 1018 10 16 0.00 0.00
4:52 pm 16:52 Mostly Cloudy 36 2.2 25 -3.9 64 64 SSE 14 22 30.08 1019 10 16 0.00 0.00
5:52 pm 17:52 Partly Cloudy 36 2.2 26 -3.3 67 67 S 16 26 30.07 1018 10 16 0.00 0.00
6:52 pm 18:52 Mostly Clear 33 0.6 26 -3.3 75 75 SSE 15 24 30.07 1018 10 16 0.00 0.00
7:52 pm 19:52 Clear 30 -1.1 24 -4.4 79 79 SSE 12 19 30.06 1018 9 14 0.00 0.00
8:52 pm 20:52 Clear 29 -1.7 24 -4.4 82 82 SSE 9 15 30.07 1018 8 13 0.00 0.00
9:52 pm 21:52 Clear 33 0.6 27 -2.8 78 78 S 13 20 30.06 1018 8 13 0.00 0.00
10:52 pm 22:52 Clear 34 1.1 28 -2.2 79 79 S 12 19 30.04 1017 8 13 0.00 0.00
11:52 pm 23:52 Clear 30 -1.1 26 -3.3 85 85 SSE 9 15 30.05 1018 7 11 0.00 0.00

Powered by AerisWeather